Regional Weather Roundup
Issued by NWS

Home | Current Version | Previous Version | Text Only | Print | Product List | Glossary Off
Versions: 1 2 3 4 5 6 7 8 9 10 11 12 13 14 15 16 17 18 19 20 21 22 23 24 25 26 27 28 29 30 31 32 33 34 35 36 37 38 39 40 41 42 43 44 45 46 47 48 49 50

000
ASUS43 KMKX 280121
RWRWI

WISCONSIN REGIONAL WEATHER ROUNDUP
NATIONAL WEATHER SERVICE MILWAUKEE/SULLIVAN WI
800 PM CDT WED JUL 27 2016

NOTE: "FAIR" INDICATES FEW OR NO CLOUDS BELOW 12,000 FEET WITH NO
SIGNIFICANT WEATHER AND/OR OBSTRUCTIONS TO VISIBILITY.

WIZ001-002-006>008-014>016-023>028-280200-
NORTHWEST WISCONSIN

CITY           SKY/WX    TMP DP  RH WIND       PRES   REMARKS
SUPERIOR ARPT  CLOUDY    62  58  86 NE7       30.02S
ASHLAND        CLOUDY    63  62  97 NE7       30.02R
HAYWARD        CLOUDY    64  62  93 NE9       30.00R
SIREN          HVY RAIN  66  64  94 NE9       29.98R
CUMBERLAND     CLOUDY    64  63  94 E9        29.98S
RICE LAKE      CLOUDY    66  63  92 NE7       29.98F
CHETEK         DRIZZLE   66  65  96 NE5       29.96F
LADYSMITH      RAIN      65  63  93 E8        29.99R
EAU CLAIRE     LGT RAIN  67  66  97 NE8       29.93F
MENOMONIE      CLOUDY    68  68  99 N3        29.93F
NEW RICHMOND   CLOUDY    67  65  92 NE6       29.95S
OSCEOLA        PTCLDY    67  67 100 NE5       29.97F
$$

WIZ003>005-009-010-017-018-280200-
NORTH CENTRAL WISCONSIN

CITY           SKY/WX    TMP DP  RH WIND       PRES   REMARKS
MANITOWISH WTR RAIN      64  64 100 E6        30.01F
ARBOR VITAE    TSTM      67  65  94 N3        30.02S
WOODRUFF       TSTM      67  65  94 N3        30.02S
RHINELANDER    RAIN      65  63  93 CALM      30.04R FOG
EAGLE RIVER    LGT RAIN  66  66 100 NE8       30.01F
LAND O LAKES   LGT RAIN  66  65  96 CALM      30.03F
PHILLIPS       LGT RAIN  65  65  99 E3        29.99F
TOMAHAWK       HVY RAIN  63  61  95 CALM      30.02F
MEDFORD        CLOUDY    62  62 100 E5        30.00F
MERRILL        TSTM      63  63 100 CALM      30.02R
$$

WIZ029-030-035-036-043>047-280200-
CENTRAL WISCONSIN

CITY           SKY/WX    TMP DP  RH WIND       PRES   REMARKS
WAUSAU         TSTM      66  64  93 NW9       30.00R FOG
MOSINEE        MOCLDY    66  64  94 NW17G25   30.01
MARSHFIELD     TSTM      67  63  87 N15G24    30.01R FOG
STEVENS POINT  LGT RAIN  68  68  99 E3        29.96F
WAUPACA        CLOUDY    74  73  95 CALM      29.95F
WAUTOMA        CLOUDY    74  72  93 CALM      29.94F
WISC RAPIDS    LGT RAIN  68  64  87 CALM      29.96F
CAMP DOUGLAS   MOCLDY    75  70  83 SE2       29.93F THUNDER
$$

WIZ011>013-019>022-031-037>040-048>050-280200-
NORTHEAST WISCONSIN

CITY           SKY/WX    TMP DP  RH WIND       PRES   REMARKS
ANTIGO         RAIN      64  64 100 N3        30.02R
SHAWANO        DRIZZLE   74  68  83 E6        29.95F
OCONTO         CLOUDY    73  73 100 CALM      29.94F
STURGEON BAY   MOCLDY    72  68  87 N3        29.96S
GREEN BAY      MOCLDY    75  66  73 NE6       29.95S
MANITOWOC      CLOUDY    71  63  75 CALM      29.96R
APPLETON       MOCLDY    75  63  64 VRB5      29.94S
CLINTONVILLE   LGT RAIN  72  68  88 CALM      29.96R
OSHKOSH        CLOUDY    76  67  73 CALM      29.94R
$$

WIZ032>034-041-042-053>061-280200-
SOUTHWEST WISCONSIN

CITY           SKY/WX    TMP DP  RH WIND       PRES   REMARKS
LA CROSSE      PTCLDY    80  67  64 S6        29.89F HX  82
SPARTA         LGT RAIN  75  69  81 NW3       29.93F
VIROQUA        PTCLDY    73  69  86 CALM      29.94F
BOSCOBEL       CLOUDY    79  69  71 CALM      29.92F HX  81
PRAIRIE DU CHI CLOUDY    78  65  63 CALM      29.91S HX  80
PLATTEVILLE    PTCLDY    78  71  80 CALM      29.94F HX  80
$$

WIZ056-057-062-063-064-067-068-280200-
SOUTH CENTRAL WISCONSIN

CITY           SKY/WX    TMP DP  RH WIND       PRES   REMARKS
REEDSBURG      MOCLDY   N/A N/A N/A E5        29.93F
BARABOO/DELLS  MOCLDY    75  68  78 E5        29.94F
LONE ROCK      PTCLDY    78  70  76 N3        29.93S HX  80
MINERAL POINT  PTCLDY    79  70  73 CALM      29.95S HX  81
MADISON        CLOUDY    79  68  69 NE3       29.94R HX  81
MIDDLETON      CLOUDY    78  71  78 E5        29.95R HX  80
WATERTOWN      PTCLDY    75  67  77 E5        29.94S
MONROE         CLOUDY    79  64  61 W3        29.94S HX  81
JANESVILLE     MOCLDY    82  64  54 CALM      29.93R HX  84
$$

WIZ051-052-058>065-066-070>072-280200-
SOUTHEAST WISCONSIN

CITY           SKY/WX    TMP DP  RH WIND       PRES   REMARKS
MILWAUKEE      MOCLDY    74  67  78 NE5       29.94S
WAUKESHA       CLEAR     73  63  68 E6        29.96R
MILWAUKEE/TIMM CLEAR     75  63  64 E5        29.96R
RACINE         CLEAR     73  67  81 CALM      29.96S
BURLINGTON     PTCLDY    75  67  76 E5        29.95R
KENOSHA        PTCLDY    75  70  84 NE8       29.95R
FOND DU LAC    CLOUDY    75  69  81 CALM      29.94R
SHEBOYGAN      CLOUDY    71  67  87 SW3       29.96R
WEST BEND      PTCLDY    72  66  83 E3        29.96R
JUNEAU         MOCLDY    75  66  73 CALM      29.95S
$$

LSZ147-162-280200-
LAKE SUPERIOR

STATION/POSITION TIME  TEMP    WIND        PRES    WAVE
                       AIR SEA DIR/SP/G            HT/PER
                 (UTC) (F)     (DEG/KT/KT) (MB)    (FT/S)
W MID LAKE BUOY  0050   62 61   10/  6/  6 1016.2R   1/ 4
DEVILS ISLAND    0100   62      20/  8/  9 1017.0R
SAXON HARBOR     0000   67      50/ 10/ 11 1015.6S
$$

LMZ867-665-643>646-280200-
LAKE MICHIGAN

STATION/POSITION TIME  TEMP    WIND        PRES    WAVE
                       AIR SEA DIR/SP/G            HT/PER
                 (UTC) (F)     (DEG/KT/KT) (MB)    (FT/S)
CHAMBERS ISLAND  0000   73     150/  1/  3 1014.2F
S GREEN BAY BUOY 0100   74 75   30/  6/  6   N/A
N MID LAKE BUOY  0050   71 71  320/  8/  8 1013.8F   0
NORTHPORT PIER   0000   75     360/  6/  7 1014.6S
SISTER BAY       0021   73        CALM       N/A
ALGOMA LAKESHORE 0013             CALM       N/A
KEWAUNEE LAKESHO 0000   67                   N/A
SHEBOYGAN LAKESH 0100   71      CALM  /  1 1014.3R
PORT WASHINGTON  0040   72      CALM  /  1 1014.9R
ATWATER BUOY     0100   66 57  310/  4/  6 1015.6R
MILWAUKEE LAKESH 0010   71      30/  6/  6   N/A
S MID LAKE BUOY  0050   75 76   80/  6/  8 1012.8F   0
KENOSHA   LAKESH 0100   65      30/  8/ 11 1013.2S
$$

TC  - TEMPERATURE IN CELSIUS
VSB - VISIBILITY IN STATUTE MILES
WCI - WIND CHILL INDEX
HX  - HEAT INDEX





USA.gov is the U.S. government's official web portal to all federal, state and local government web resources and services.